Location: Branche des Alpilles
(43.6087°N, 4.6976°E)
Time: 17:23:30
(UTC+00:00)

Cosmos 1238 Rocket - Pass Details

Date: 30 November 2020
Orbit: 376 x 1024 km, 83.0° (Epoch: 23 January)

Event Time Altitude Azimuth Distance (km) Brightness Sun altitude
Rises 18:15:47 0° 353° (N) 2,631 6.3 -22.9°
Enters shadow 18:16:26 - 353° (N) 2,360 6.0 -23.0°
Exits shadow 18:23:15 42° 164° (SSE) 928 3.8 -24.2°
Drops below altitude 10° 18:26:39 10° 171° (S) 2,210 5.8 -24.8°
Sets 18:29:12 0° 172° (S) 3,242 6.7 -25.3°
